This demonstration page uses our WeatherBlox Daily Observations layout. Learn more.

Left ArrowRight Arrow

Hourly Observations for June 22, 2018

Temp ( °F °C ) Dew Point ( °F °C ) Humidity (%) Winds ( mph kmh ) Pressure ( in mb ) Visibility ( mi km ) Precip ( " mm )
12:53 am 00:53 Clear 58 14.4 56 13.3 93 93 SSW 6 9 29.77 1008 10 16 0.00 0.00
1:53 am 01:53 Clear 58 14.4 56 13.3 93 93 WSW 7 11 29.77 1008 10 16 0.00 0.00
2:53 am 02:53 Clear 58 14.4 56 13.3 93 93 Calm 29.77 1008 10 16 0.00 0.00
3:53 am 03:53 Clear 57 13.9 55 12.8 93 93 SW 12 19 29.78 1009 10 16 0.00 0.00
4:53 am 04:53 Clear 57 13.9 55 12.8 93 93 SW 12 19 29.79 1009 10 16 0.00 0.00
5:53 am 05:53 Sunny 56 13.3 54 12.2 93 93 SW 12 19 29.79 1009 10 16 0.00 0.00
6:53 am 06:53 Sunny 59 15 55 12.8 87 87 SW 12 19 29.79 1009 10 16 0.00 0.00
7:53 am 07:53 Sunny 64 17.8 55 12.8 73 73 SW 14 22 29.79 1009 10 16 0.00 0.00
8:53 am 08:53 Sunny 68 20 54 12.2 61 61 WSW 15 24 29.79 1009 10 16 0.00 0.00
9:53 am 09:53 Sunny 71 21.7 55 12.8 57 57 WSW 13 20 29.78 1009 10 16 0.00 0.00
10:53 am 10:53 Partly Cloudy 76 24.4 54 12.2 47 47 W 14 22 29.77 1008 10 16 0.00 0.00
11:53 am 11:53 Mostly Sunny 80 26.7 54 12.2 41 41 WNW 13 20 29.76 1008 10 16 0.00 0.00
12:53 pm 12:53 Mostly Sunny 80 26.7 54 12.2 41 41 WNW 15 24 29.75 1007 10 16 0.00 0.00
1:53 pm 13:53 Partly Cloudy with Nearby Thunderstorms 82 27.8 53 11.7 37 37 WNW 20 31 29.73 1007 10 16 0.00 0.00
2:35 pm 14:35 Mostly Sunny 75 23.9 53 11.7 46 46 W 17 28 29.62 1003 10 16 0.00 0.00
2:53 pm 14:53 Sunny 74 23.3 50 10 43 43 WSW 14 22 29.74 1007 10 16 0.00 0.00
3:53 pm 15:53 Sunny 75 23.9 53 11.7 46 46 SW 12 19 29.72 1006 10 16 0.00 0.00
4:53 pm 16:53 Mostly Sunny 74 23.3 55 12.8 52 52 SSW 14 22 29.71 1006 10 16 0.00 0.00
5:25 pm 17:25 Partly Cloudy with Nearby Thunderstorms 74 23.3 55 12.8 52 52 SW 26 43 29.59 1002 10 16 0.00 0.00
5:53 pm 17:53 Sunny with Nearby Thunderstorms 68 20 56 13.3 65 65 SW 21 33 29.72 1007 10 16 0.00 0.00
6:05 pm 18:05 Mostly Sunny 67 19.4 57 13.9 71 71 SW 18 30 29.62 1003 10 16 0.00 0.00
6:13 pm 18:13 Partly Cloudy with Nearby Thunderstorms 69 20.6 56 13.3 63 63 SW 17 28 29.62 1003 10 16 0.00 0.00
6:43 pm 18:43 Sunny 69 20.6 56 13.3 63 63 SSW 16 26 29.62 1003 10 16 0.00 0.00
6:53 pm 18:53 Partly Cloudy with Nearby Thunderstorms 71 21.7 54 12.2 55 55 SW 15 24 29.71 1006 10 16 0.00 0.00
7:46 pm 19:46 Mostly Sunny 66 19 55 13 68 68 SSW 10 17 29.65 1004 10 16 0.00 0.00
7:53 pm 19:53 Partly Cloudy 68 20 55 12.8 63 63 SW 18 30 29.71 1006 10 16 0.00 0.00
8:53 pm 20:53 Mostly Cloudy 67 19.4 56 13.3 68 68 S 14 22 29.70 1006 10 16 0.00 0.03
9:53 pm 21:53 Mostly Clear 66 18.9 57 13.9 73 73 SW 14 22 29.70 1006 10 16 0.00 0.00
10:53 pm 22:53 Clear 64 17.8 58 14.4 81 81 W 9 15 29.72 1006 10 16 0.00 0.00
11:53 pm 23:53 Mostly Cloudy 67 19.4 56 13.3 68 68 W 8 13 29.71 1006 10 16 0.00 0.00

Powered by AerisWeather